[[{"header":{"parameterUnit":"m.s-1","parameterCategory":1,"la1":30.2991,"la2":30.254,"lo1":-89.0895,"lo2":-89.0444,"dy":0.0017,"dx":0.0017,"nx":28,"ny":28,"refTime":"2025-01-13T09:00:00:Z","depth":0,"parameterNumber":2,"parameterNumberName":"U-component_of_WINDS"},"data":[0,0,0,0,0,0,0,0,0,0,0,0,0,0,0,0,0,0,0,0,0,0,0,0,0,0,0,0,0,0,0,0,0,0,0,0,0,0,0,0,0,0,0,0,0,0,0,0,0,0,0,0,0,0,0,0,0,0,-2.2446,-2.2447,0,-2.2491,-2.2492,-2.2492,-2.2444,-2.2442,-2.244,-2.2438,-2.2486,-2.2489,-2.2492,0,0,0,0,0,0,0,0,0,0,0,0,0,-2.2318,-2.2321,-2.2446,-2.2447,-2.2447,-2.2491,-2.2492,-2.2493,-2.2444,-2.2442,-2.2439,-2.2437,-2.2485,-2.2488,-2.2492,0,0,0,0,0,0,0,0,0,0,0,0,0,-2.237,-2.2321,-2.2446,-2.2428,-2.2427,-2.2491,-2.2492,-2.2493,-2.2444,-2.2442,-2.2439,-2.2436,-2.2484,-2.2488,-2.2493,-2.2577,0,0,-2.2506,-2.2508,0,0,0,0,0,0,0,0,-2.2367,-2.2374,-2.243,-2.243,-2.2428,-2.2459,-2.2464,-2.2521,-2.2445,-2.2438,-2.2438,-2.2435,-2.2479,-2.2484,-2.2499,-2.2579,-2.2581,-2.2507,-2.251,-2.2511,-2.2513,0,0,0,0,0,0,0,-2.2363,-2.2372,-2.2464,-2.2431,-2.243,-2.2418,-2.2422,-2.2475,-2.2474,-2.2438,-2.2435,-2.2441,-2.2478,-2.2494,-2.2499,-2.2582,-2.2507,-2.2511,-2.2513,-2.2515,-2.2733,-2.2735,0,0,0,0,0,0,-2.2361,-2.2369,-2.2463,-2.2465,-2.239,-2.2423,-2.2427,-2.2452,-2.2473,-2.2474,-2.2443,-2.2438,-2.2488,-2.2494,-2.2501,-2.2601,-2.2511,-2.2516,-2.2518,-2.273,-2.2733,-2.2737,0,0,0,0,0,0,-2.2359,-2.237,-2.2461,-2.2416,-2.2427,-2.2428,-2.2456,-2.2454,-2.2471,-2.2477,-2.2476,-2.246,-2.2486,-2.2495,-2.2558,-2.2602,-2.2518,-2.2522,-2.2726,-2.2731,-2.2735,-2.2802,0,0,0,0,0,0,-2.2355,-2.237,-2.2402,-2.2418,-2.243,-2.2517,-2.2459,-2.2457,-2.2478,-2.2473,-2.2492,-2.2493,-2.2485,-2.2552,-2.2563,-2.2607,-2.2525,-2.2722,-2.2728,-2.2733,-2.2796,-2.2808,-2.2819,0,0,0,0,0,-2.2351,-2.2419,-2.2404,-2.2415,-2.247,-2.252,-2.2527,-2.2515,-2.2482,-2.2514,-2.2518,-2.2492,-2.2595,-2.2558,-2.257,-2.2617,-2.2719,-2.2726,-2.2733,-2.2791,-2.2806,-2.2819,0,0,0,0,0,0,-2.2409,-2.2421,-2.2404,-2.2479,-2.2499,-2.2512,-2.2552,-2.2532,-2.2562,-2.2555,-2.254,-2.2545,-2.2612,-2.262,-2.2579,-2.2699,-2.2652,-2.2661,-2.2692,-2.2706,-2.2717,-2.2715,-2.2529,0,0,0,0,0,-2.2431,-2.2471,-2.2478,-2.2544,-2.2555,-2.2552,-2.2573,-2.2562,-2.2583,-2.2591,-2.2599,-2.262,-2.2657,-2.2681,-2.2716,-2.2796,-2.28,-2.2834,-2.2845,-2.2855,-2.2864,-2.2907,-2.2922,-2.2759,-2.2759,-2.2759,0,0,-2.2476,-2.2487,-2.2514,-2.2556,-2.257,-2.2612,-2.2559,-2.2606,-2.2637,-2.2598,-2.2659,-2.2665,-2.2687,-2.276,-2.2792,-2.2769,-2.2909,-2.2863,-2.2871,-2.2875,-2.2916,-2.2931,-2.2945,-2.2764,-2.2763,-2.2762,0,0,-2.258,-2.2592,-2.2648,-2.2663,-2.2685,-2.2682,-2.2695,-2.2711,-2.2714,-2.2774,-2.2746,-2.2782,-2.2845,-2.2862,-2.2879,-2.2987,-2.2965,-2.2999,-2.306,-2.3102,-2.3115,-2.3127,-2.3166,-2.318,-2.3007,-2.3008,-2.3008,0,-2.2634,-2.2696,-2.268,-2.2728,-2.2748,-2.2714,-2.277,-2.2785,-2.2817,-2.2832,-2.2805,-2.2883,-2.2895,-2.2971,-2.2998,-2.3012,-2.3027,-2.2998,-2.3114,-2.3126,-2.3136,-2.3174,-2.3188,-2.3012,-2.3011,-2.3011,-2.301,0,-2.2761,-2.2804,-2.2847,-2.2878,-2.2902,-2.2954,-2.2947,-2.2973,-2.2959,-2.2959,-2.3021,-2.3034,-2.307,-2.3086,-2.3074,-2.3161,-2.3146,-2.3117,-2.3069,-2.3156,-2.3191,-2.3205,-2.3017,-2.3016,-2.3015,-2.3014,0,0,-2.2906,-2.2926,-2.2942,-2.2956,-2.2976,-2.3009,-2.3059,-2.3094,-2.3117,-2.3139,-2.3182,-2.3235,-2.3208,-2.3227,-2.3216,-2.3253,-2.3339,-2.3219,-2.322,-2.3242,-2.3435,-2.3458,-2.3475,-2.3323,-2.3325,-2.3328,-2.3434,0,-2.3012,-2.3099,-2.3086,-2.317,-2.321,-2.3176,-2.322,-2.3237,-2.3238,-2.3271,-2.3272,-2.3311,-2.3272,-2.3283,-2.3318,-2.3321,-2.3378,-2.3313,-2.3363,-2.3365,-2.3361,-2.3493,-2.3518,-2.3618,-2.3447,-2.345,-2.3451,0,-2.3147,-2.3174,-2.3262,-2.3275,-2.3291,-2.3331,-2.3362,-2.3394,-2.3412,-2.341,-2.343,-2.3412,-2.3462,-2.3412,-2.3481,-2.3437,-2.3456,-2.3461,-2.3464,-2.347,-2.3415,-2.3505,-2.365,-2.3665,-2.3473,-2.3471,-2.3469,0,-2.3246,-2.3303,-2.3364,-2.3376,-2.3393,-2.3421,-2.343,-2.3445,-2.3466,-2.3492,-2.3506,-2.3538,-2.3556,-2.3581,-2.3571,-2.3535,-2.3642,-2.3591,-2.3643,-2.3643,-2.3669,-2.3668,-2.3821,-2.3678,-2.3678,-2.3678,-2.3677,0,-2.3366,-2.3422,-2.3408,-2.3446,-2.3507,-2.349,-2.3551,-2.3555,-2.3569,-2.3606,-2.3578,-2.3614,-2.3599,-2.3633,-2.3626,-2.3684,-2.3692,-2.3692,-2.369,-2.3696,-2.3696,-2.371,-2.3704,-2.3682,-2.3681,-2.368,-2.3679,0,-2.3488,-2.3481,-2.3544,-2.3554,-2.3558,-2.3603,-2.3611,-2.3646,-2.3643,-2.3691,-2.3701,-2.3698,-2.3737,-2.3729,-2.3773,-2.3768,-2.3841,-2.383,-2.3836,-2.3834,-2.3886,-2.3882,-2.4055,-2.4077,-2.3918,-2.392,-2.3921,0,-2.3566,-2.3608,-2.3622,-2.3645,-2.3655,-2.3693,-2.3714,-2.3698,-2.3722,-2.3745,-2.3777,-2.3813,-2.3842,-2.3906,-2.3908,-2.394,-2.393,-2.3988,-2.3935,-2.394,-2.3933,-2.3931,-2.3935,-2.4,-2.4002,-2.4003,-2.4004,0,-2.3707,-2.3701,-2.3732,-2.3763,-2.3789,-2.3812,-2.3833,-2.3853,-2.3839,-2.3866,-2.3906,-2.3928,-2.3971,-2.4008,-2.4038,-2.4046,-2.4024,-2.4021,-2.4034,-2.4042,-2.4044,-2.4045,-2.3866,-2.4017,-2.4016,-2.4015,-2.4014,-2.4014,-2.381,-2.3846,-2.3861,-2.3897,-2.3911,-2.393,-2.3963,-2.3964,-2.3997,-2.4031,-2.4019,-2.4064,-2.408,-2.4118,-2.413,-2.4164,-2.4143,-2.4163,-2.4168,-2.4174,-2.4181,-2.4037,-2.417,-2.4169,-2.4169,-2.4169,-2.4168,0,-2.3951,-2.3958,-2.3991,-2.4021,-2.4049,-2.4023,-2.4044,-2.4069,-2.4109,-2.4126,-2.4154,-2.4199,-2.4234,-2.4237,-2.427,-2.4297,-2.4288,-2.4307,-2.4306,-2.4308,-2.4198,-2.4183,-2.4314,-2.4314,-2.4314,-2.4314,-2.4314,-2.4314,-2.4027,-2.4086,-2.4082,-2.4147,-2.4154,-2.4198,-2.4212,-2.4229,-2.4242,-2.4294,-2.4323,-2.4324,-2.4335,-2.4368,-2.4399,-2.4399,-2.4413,-2.4437,-2.4433,-2.433,-2.4316,-2.4302,-2.4288,-2.4439,-2.444,-2.4541,-2.4542,-2.4542]},{"header":{"parameterUnit":"m.s-1","parameterCategory":1,"la1":30.2991,"la2":30.254,"lo1":-89.0895,"lo2":-89.0444,"dy":0.0017,"dx":0.0017,"nx":28,"ny":28,"refTime":"2025-01-13T09:00:00:Z","depth":0,"parameterNumber":3,"parameterNumberName":"V-component_of_WINDS"},"data":[0,0,0,0,0,0,0,0,0,0,0,0,0,0,0,0,0,0,0,0,0,0,0,0,0,0,0,0,0,0,0,0,0,0,0,0,0,0,0,0,0,0,0,0,0,0,0,0,0,0,0,0,0,0,0,0,0,0,-5.9723,-5.9723,0,-5.9803,-5.9804,-5.9805,-5.9749,-5.9747,-5.9744,-5.9742,-5.982,-5.9824,-5.9828,0,0,0,0,0,0,0,0,0,0,0,0,0,-5.9514,-5.9518,-5.9722,-5.9723,-5.9725,-5.9803,-5.9804,-5.9805,-5.975,-5.9747,-5.9744,-5.9741,-5.9818,-5.9823,-5.9829,0,0,0,0,0,0,0,0,0,0,0,0,0,-5.9601,-5.952,-5.9722,-5.9706,-5.9706,-5.9803,-5.9804,-5.9806,-5.975,-5.9747,-5.9743,-5.9739,-5.9816,-5.9823,-5.9829,-5.9945,0,0,-5.9849,-5.9852,0,0,0,0,0,0,0,0,-5.9596,-5.9608,-5.9708,-5.9708,-5.9707,-5.9763,-5.9759,-5.9852,-5.9751,-5.9733,-5.9742,-5.9737,-5.9803,-5.9811,-5.9834,-5.9949,-5.9952,-5.985,-5.9854,-5.9857,-5.9859,0,0,0,0,0,0,0,-5.959,-5.9604,-5.9754,-5.9709,-5.9709,-5.9693,-5.9701,-5.9777,-5.9788,-5.9735,-5.9731,-5.9741,-5.9802,-5.9828,-5.9835,-5.9953,-5.985,-5.9856,-5.986,-5.9862,-6.0167,-6.0171,0,0,0,0,0,0,-5.9586,-5.96,-5.9752,-5.9757,-5.9641,-5.97,-5.9709,-5.9748,-5.9787,-5.979,-5.9744,-5.9738,-5.9818,-5.9828,-5.9838,-5.9976,-5.9857,-5.9863,-5.9867,-6.0163,-6.0168,-6.0172,0,0,0,0,0,0,-5.9582,-5.96,-5.9748,-5.9677,-5.9695,-5.9708,-5.9752,-5.9752,-5.9777,-5.9795,-5.9796,-5.9769,-5.9816,-5.9829,-5.9919,-5.9978,-5.9866,-5.9872,-6.0158,-6.0164,-6.017,-6.0254,0,0,0,0,0,0,-5.9576,-5.9599,-5.9645,-5.9679,-5.9699,-5.983,-5.9756,-5.9756,-5.979,-5.9782,-5.9818,-5.982,-5.9814,-5.991,-5.9926,-5.9985,-5.9877,-6.0152,-6.0161,-6.0168,-6.0246,-6.0262,-6.0276,0,0,0,0,0,-5.9569,-5.9664,-5.9647,-5.9666,-5.9757,-5.9834,-5.9845,-5.9838,-5.9795,-5.984,-5.9851,-5.9819,-5.9969,-5.9919,-5.9937,-5.9999,-6.0149,-6.0158,-6.0167,-6.0239,-6.0259,-6.0276,0,0,0,0,0,0,-5.9634,-5.9668,-5.965,-5.9759,-5.9795,-5.9824,-5.9881,-5.9859,-5.9906,-5.9897,-5.9883,-5.9892,-5.9987,-6.0002,-5.9946,-6.0113,-6.0052,-6.0065,-6.01,-6.0119,-6.0134,-6.0129,-5.9883,0,0,0,0,0,-5.9662,-5.9724,-5.9749,-5.9843,-5.9862,-5.9869,-5.9902,-5.9893,-5.9928,-5.9942,-5.996,-5.9994,-6.0048,-6.0084,-6.0136,-6.0247,-6.0254,-6.0299,-6.0314,-6.0326,-6.0338,-6.0398,-6.0418,-6.0202,-6.0202,-6.0202,0,0,-5.9718,-5.9744,-5.9784,-5.9857,-5.9883,-5.9946,-5.9881,-5.995,-5.9996,-5.9952,-6.0039,-6.0053,-6.009,-6.0192,-6.0238,-6.0207,-6.0399,-6.0338,-6.0348,-6.0353,-6.0409,-6.043,-6.0448,-6.0209,-6.0208,-6.0207,0,0,-5.9854,-5.988,-5.9962,-5.999,-6.0031,-6.0035,-6.0054,-6.0088,-6.0096,-6.0184,-6.0152,-6.0205,-6.03,-6.0327,-6.0354,-6.05,-6.0472,-6.0517,-6.0596,-6.0654,-6.0671,-6.0686,-6.0738,-6.0757,-6.0528,-6.0528,-6.0528,0,-5.9919,-6.0014,-6.0006,-6.0078,-6.011,-6.0075,-6.0156,-6.0183,-6.0238,-6.026,-6.0226,-6.0344,-6.0366,-6.0474,-6.051,-6.0532,-6.0553,-6.0513,-6.067,-6.0685,-6.0698,-6.0748,-6.0768,-6.0533,-6.0533,-6.0532,-6.0532,0,-6.0092,-6.0158,-6.0219,-6.0275,-6.0314,-6.039,-6.0392,-6.0432,-6.0419,-6.0426,-6.0516,-6.0541,-6.0597,-6.0621,-6.0609,-6.0727,-6.0707,-6.0672,-6.061,-6.0724,-6.0771,-6.079,-6.0541,-6.0539,-6.0537,-6.0536,0,0,-6.0271,-6.0323,-6.0345,-6.037,-6.0413,-6.0463,-6.0537,-6.0593,-6.0628,-6.0666,-6.0727,-6.0808,-6.0776,-6.0805,-6.0796,-6.0847,-6.0961,-6.0805,-6.0805,-6.0833,-6.1093,-6.112,-6.1142,-6.0943,-6.0947,-6.0949,-6.109,0,-6.041,-6.0541,-6.0536,-6.0658,-6.0718,-6.0685,-6.0749,-6.0781,-6.079,-6.0841,-6.0849,-6.0907,-6.0859,-6.0877,-6.0927,-6.0937,-6.1013,-6.0927,-6.0998,-6.1001,-6.0991,-6.1166,-6.1195,-6.1326,-6.1108,-6.1111,-6.1113,0,-6.0589,-6.0636,-6.0765,-6.0799,-6.0824,-6.0882,-6.0933,-6.0983,-6.1018,-6.102,-6.1054,-6.1036,-6.1109,-6.1045,-6.1145,-6.1086,-6.1115,-6.1124,-6.1129,-6.1136,-6.1064,-6.1178,-6.1368,-6.1388,-6.1141,-6.1139,-6.1137,0,-6.0707,-6.0803,-6.0892,-6.0915,-6.0956,-6.0998,-6.1017,-6.1048,-6.1082,-6.1126,-6.1148,-6.1199,-6.1227,-6.1266,-6.1262,-6.1216,-6.1363,-6.1299,-6.1366,-6.1366,-6.1399,-6.1397,-6.1597,-6.1417,-6.1417,-6.1416,-6.1416,0,-6.0863,-6.0943,-6.0946,-6.1001,-6.109,-6.1081,-6.1168,-6.1182,-6.1211,-6.1266,-6.124,-6.1292,-6.1283,-6.1335,-6.1332,-6.1415,-6.1427,-6.143,-6.1429,-6.1433,-6.1433,-6.1452,-6.1443,-6.1422,-6.1421,-6.142,-6.1419,0,-6.101,-6.1016,-6.1111,-6.1143,-6.1153,-6.1217,-6.1243,-6.1294,-6.13,-6.1371,-6.1387,-6.1396,-6.1456,-6.1456,-6.1523,-6.1521,-6.1623,-6.161,-6.1612,-6.161,-6.1677,-6.1671,-6.1897,-6.1926,-6.1727,-6.1729,-6.173,0,-6.111,-6.1171,-6.121,-6.1247,-6.1269,-6.1327,-6.1363,-6.1356,-6.1394,-6.1438,-6.1484,-6.1542,-6.1588,-6.1685,-6.1696,-6.1747,-6.1736,-6.1812,-6.1743,-6.1746,-6.1737,-6.1734,-6.174,-6.1825,-6.1827,-6.1829,-6.1831,0,-6.1285,-6.1285,-6.1338,-6.1392,-6.1436,-6.1477,-6.1516,-6.1546,-6.1544,-6.1587,-6.1649,-6.1685,-6.1755,-6.1812,-6.1862,-6.1879,-6.1854,-6.1852,-6.187,-6.1876,-6.1874,-6.1876,-6.1649,-6.1847,-6.1845,-6.1844,-6.1843,-6.1842,-6.1412,-6.1465,-6.1501,-6.156,-6.1589,-6.1626,-6.1676,-6.1689,-6.1741,-6.1799,-6.1791,-6.186,-6.1892,-6.1957,-6.1978,-6.2031,-6.2004,-6.2031,-6.2037,-6.2044,-6.2052,-6.1866,-6.204,-6.2039,-6.2039,-6.2038,-6.2038,0,-6.1586,-6.1608,-6.1663,-6.1719,-6.1765,-6.174,-6.1781,-6.1821,-6.1883,-6.1916,-6.1962,-6.2033,-6.2089,-6.2105,-6.2158,-6.2197,-6.2187,-6.2211,-6.2208,-6.2212,-6.2073,-6.2052,-6.2218,-6.2218,-6.2218,-6.2218,-6.2218,-6.2218,-6.1682,-6.1771,-6.1775,-6.1876,-6.1897,-6.1966,-6.1992,-6.2025,-6.2051,-6.2132,-6.2179,-6.219,-6.2216,-6.227,-6.232,-6.2323,-6.2343,-6.2372,-6.2371,-6.224,-6.2222,-6.2205,-6.2185,-6.2377,-6.2377,-6.2506,-6.2507,-6.2508]}]]